Regional Weather Roundup
Issued by NWS Jackson, KY

Home | Current Version | Previous Version | Text Only | Print | Product List | Glossary On
Versions: 1 2 3 4 5 6 7 8 9 10 11 12 13 14 15 16 17 18 19 20 21 22 23 24 25 26 27 28 29 30 31 32 33 34 35 36 37 38 39 40 41 42 43 44 45 46 47 48 49 50
000
ASUS43 KJKL 141310
RWRJKL

EAST KENTUCKY HOURLY WEATHER ROUNDUP
NATIONAL WEATHER SERVICE JACKSON KY
800 AM EST SUN FEB 14 2016

NOTE: "FAIR" INDICATES FEW OR NO CLOUDS BELOW 12,000 FEET WITH
NO SIGNIFICANT WEATHER AND/OR OBSTRUCTIONS TO VISIBILITY.

* THESE REPORTS ARE NOT UNDER NWS QUALITY CONTROL AND MAY NOT
  REPORT WEATHER SUCH AS PRECIPITATION AND FOG.

KYZ079-080-083-085-087-088-110-112-115-119-120-141400
...EASTERN KENTUCKY...

CITY           SKY/WX    TMP DP  RH WIND       PRES   REMARKS
JACKSON        CLOUDY    14   1  56 CALM      30.40R
LONDON         CLOUDY    18   4  54 E7        30.39F WCI   9
SOMERSET*      CLOUDY    19   5  53 E3        30.41F
MONTICELLO*    CLOUDY    20   8  60 VRB5      30.40S WCI  13
WILLIAMSBURG*  CLOUDY    19   7  58 E6        30.38F WCI  11
HARLAN APT*    CLOUDY    18   5  57 CALM      30.38R
HAZARD APT*    PTSUNNY  -26 -35  62 CALM      30.41R
BLACK MTN*       N/A     12 -20  22 SW6         N/A  WCI   3
BIG SANDY*     CLOUDY    13   2  62 E5        30.42F WCI   5
MOREHEAD APT*  CLOUDY    14   0  52 CALM      30.47R
$$

KYZ035-036-041-042-044-050-067-078-099-141400
...CENTRAL KENTUCKY...

CITY           SKY/WX    TMP DP  RH WIND       PRES   REMARKS
MT STERLING*   CLOUDY    16   3  57 SE5       30.45F WCI   9
DANVILLE*      CLOUDY    19   7  58 E6        30.41F WCI  11
RICHMOND*      CLOUDY    16   3  57 E7        30.42S WCI   6
LEXINGTON      CLOUDY    17   4  56 E9        30.42F WCI   6
FRANKFORT      CLOUDY    18   4  54 E8        30.41F WCI   8
$$

KYZ091>093-OHZ055-061-077-WVZ005-015-034-035-042-141400
...SOUTHERN OHIO/WEST VIRGINIA...

CITY           SKY/WX    TMP DP  RH WIND       PRES   REMARKS
COVINGTON      CLOUDY    14   4  64 SE9       30.43F WCI   2
COLUMBUS       CLOUDY     4  -2  76 S6        30.47S WCI  -7
DAYTON         CLOUDY     8   2  76 SE6       30.43F WCI  -2
WILMINGTON     CLOUDY     8   1  73 E6        30.43F WCI  -2
HUNTINGTON     MOCLDY    10   4  76 E3        30.47F
CHARLESTON       N/A      5   1  83 CALM      30.49R
PINEVILLE*       N/A      4  -2  78 MISG      30.46S
BECKLEY          N/A      2  -6  69 CALM      30.33R
$$

VAZ002-007-008-TNZ017-027-036-066-071-141400
...SOUTHWEST VIRGINIA/EAST TENNESSEE...

CITY           SKY/WX    TMP DP  RH WIND       PRES   REMARKS
BRISTOL        CLOUDY    17   5  59 NE6       30.37S WCI   9
KNOXVILLE      CLOUDY    22   7  52 NE10      30.37S WCI  11
OAK RIDGE      CLOUDY    23   7  50 VRB5      30.40S WCI  17
CROSSVILLE     CLOUDY    21   4  47 E7        30.28F WCI  12
NASHVILLE      CLOUDY    28   7  41 NE7       30.37R WCI  21
$$

...KEY TO REMARKS...
VSB - VISIBILITY IN MILES
WCI - WIND CHILL INDEX
HX  - HEAT INDEX

$$



USA.gov is the U.S. government's official web portal to all federal, state and local government web resources and services.